Theta_e
345 342 331 323 312 308 307 315 324 321 320 326 325 328 329 332 328 316 341 344 346 347 353 357 364 366 365 364 363 362 361 361 361 361 361 362 362 362 363 361 361 360 358 358 357 357 356 356 355
327 326 322 316 305 301 305 320 318 319 324 327 328 332 330 326 333 336 339 344 347 348 349 355 364 364 365 364 362 361 361 361 361 361 362 361 362 363 363 362 362 362 358 357 357 357 356 356 355
326 322 312 308 303 301 304 318 320 322 326 329 328 335 333 328 334 334 343 344 345 344 349 356 364 364 364 363 362 361 361 361 361 362 362 361 362 362 362 361 362 363 359 359 358 357 358 356 356
312 318 316 303 301 308 309 316 323 324 326 329 332 330 336 339 336 340 343 344 342 344 349 359 363 363 363 362 361 361 361 361 362 362 361 360 361 361 361 361 359 361 360 359 360 358 361 360 359
312 313 304 300 302 309 313 317 320 323 325 327 334 329 330 339 339 341 341 342 341 346 351 354 362 362 362 361 360 361 362 362 361 362 360 360 360 360 360 359 359 359 359 358 358 358 357 357 357
306 309 298 297 302 310 312 316 321 324 328 328 332 332 330 340 337 341 341 339 347 347 350 353 360 361 360 361 361 361 361 361 361 361 360 360 360 359 358 358 357 357 357 357 358 357 355 354 355
302 300 298 300 302 306 310 315 316 318 317 326 337 330 332 336 337 339 340 346 347 346 348 350 353 357 360 361 361 361 361 361 360 359 359 359 359 358 357 357 356 357 357 357 357 357 356 355 356
305 301 298 300 302 301 309 317 319 324 325 334 336 329 326 335 338 337 343 345 343 344 346 347 349 351 352 355 361 361 361 360 360 360 359 358 358 357 356 354 355 356 357 357 357 357 357 356 356
309 297 296 299 300 304 308 307 318 326 327 329 337 336 337 339 338 333 338 341 341 342 343 344 347 347 347 349 355 359 359 360 360 359 358 355 347 348 349 352 354 357 357 357 357 357 357 356 356
306 297 299 306 306 304 304 306 315 318 319 332 336 340 340 337 334 331 329 335 337 337 339 342 343 344 344 350 350 350 352 354 352 351 350 345 341 341 345 349 357 357 357 356 356 356 356 357 348
305 300 304 308 308 307 304 305 309 315 315 323 333 336 337 335 332 332 331 331 335 336 337 338 340 341 342 346 348 347 349 348 347 346 347 343 342 341 343 346 348 347 353 346 350 350 351 346 345
302 307 307 306 308 303 303 305 305 308 311 320 329 338 336 333 331 329 331 332 335 335 335 337 337 337 337 346 345 344 346 345 344 345 345 341 340 339 343 344 343 342 341 341 340 341 343 342 345
300 304 306 308 304 301 304 302 302 308 316 319 321 333 335 333 332 331 332 338 336 336 335 336 336 335 337 342 341 342 343 344 344 344 346 344 341 341 341 343 341 340 339 337 338 338 341 341 337
303 303 304 304 303 300 299 301 302 313 319 318 316 313 316 329 331 333 334 335 336 338 335 337 336 336 341 340 338 341 342 343 343 344 345 345 342 342 339 335 339 337 337 338 336 340 340 340 336
303 297 301 301 302 301 303 299 300 314 322 321 320 331 335 335 336 334 336 336 336 336 337 335 337 337 340 341 338 339 341 342 342 343 344 345 343 342 339 335 336 338 340 337 341 338 336 339 342
299 296 291 299 303 304 302 294 309 317 320 320 327 331 331 333 334 336 338 338 340 341 338 338 340 337 336 341 340 338 339 338 340 341 344 345 343 344 341 337 338 340 338 336 339 339 336 335 336
296 291 294 297 303 302 300 303 312 316 319 325 326 327 328 328 331 334 336 338 340 340 342 336 337 336 337 340 342 341 339 338 338 341 345 345 344 345 342 338 337 341 337 337 336 334 335 335 342
294 293 294 295 298 301 297 305 312 317 321 323 323 324 324 324 326 332 333 337 339 342 340 341 342 338 337 338 341 340 339 340 341 340 347 345 345 344 340 341 338 339 343 338 336 336 335 332 336
304 301 300 300 304 301 299 308 310 315 317 319 319 320 321 322 326 330 332 335 336 341 340 341 341 343 342 337 336 336 337 336 339 340 342 347 344 343 340 339 340 342 341 336 336 337 338 335 337
302 299 299 306 308 305 306 306 310 313 314 317 317 317 317 318 322 329 330 334 333 333 335 335 340 342 344 342 339 339 340 338 338 342 341 342 345 344 343 339 337 336 340 341 338 338 334 335 334
298 296 295 296 302 305 302 301 306 313 315 316 316 316 316 316 318 324 326 327 328 330 331 331 330 330 330 335 341 341 341 339 337 338 338 336 335 340 344 343 339 338 341 339 339 339 336 332 332
293 299 298 297 294 289 299 288 303 308 309 311 311 311 312 314 319 321 322 323 325 326 327 327 327 326 326 326 329 333 331 331 332 330 330 328 329 329 336 341 342 340 340 339 338 342 336 334 331
297 299 296 296 291 288 291 286 294 307 305 307 309 311 311 313 316 318 318 320 321 321 320 321 320 318 324 322 322 325 325 326 330 331 330 329 331 330 334 337 333 334 337 336 336 336 337 337 332
302 295 294 291 287 282 289 288 297 302 305 307 310 311 312 313 314 318 319 320 318 319 318 318 316 316 318 318 318 319 320 320 321 322 327 327 329 329 330 334 330 330 330 328 334 334 334 334 335
295 291 282 282 282 284 292 291 292 306 309 309 309 311 312 312 312 312 312 313 314 315 316 318 315 314 314 314 314 315 315 316 315 315 315 316 320 320 317 321 327 328 327 328 330 331 330 330 330
292 291 284 278 280 284 293 296 299 310 312 312 312 309 312 310 309 311 312 312 313 315 315 314 313 311 311 313 313 313 313 313 312 311 310 310 310 310 312 312 312 313 316 319 320 323 325 325 324
292 288 293 288 288 285 288 300 307 309 309 311 308 308 310 310 310 310 311 313 313 314 314 313 313 314 314 314 313 312 312 311 310 311 310 309 307 309 308 309 310 310 311 313 313 313 315 316 317
294 295 286 286 281 280 286 294 295 303 306 306 306 304 309 311 310 310 310 311 311 311 312 313 312 315 314 313 313 312 312 312 311 310 308 308 308 305 304 306 306 307 308 310 310 310 311 310 310
292 289 291 288 287 281 281 286 304 304 305 305 303 304 309 311 311 310 310 311 311 311 311 312 314 314 313 312 311 311 311 311 308 304 304 304 304 302 305 304 303 304 306 306 307 307 307 307 308
297 293 293 285 285 288 288 287 306 305 305 305 304 305 304 312 312 312 312 311 310 309 310 310 313 312 311 310 308 308 308 308 305 304 303 302 301 301 301 303 304 303 304 305 304 304 305 305 305
Wind_Speed
6 6 3 1 2 2 6 7 10 14 8 17 7 14 15 9 5 6 12 20 22 18 13 15 17 21 20 19 17 16 15 14 14 14 13 13 13 13 14 14 14 14 14 13 13 12 12 11 11
5 6 1 3 2 4 8 18 19 3 14 2 10 19 18 14 9 18 12 20 20 18 12 12 18 21 21 19 18 16 15 15 13 13 13 13 12 12 12 12 14 13 14 13 12 11 10 8 10
3 4 1 4 4 11 5 12 17 17 31 4 4 11 7 9 14 6 22 22 21 15 12 13 19 20 21 20 17 16 15 14 13 12 14 13 11 10 10 10 12 12 13 13 11 9 8 6 7
4 3 4 1 11 20 16 10 14 19 16 2 11 9 11 9 9 17 24 23 19 15 12 15 16 20 21 20 17 16 15 14 13 13 13 12 11 10 9 9 9 10 11 11 10 8 6 5 5
1 2 3 5 12 19 19 15 9 14 8 7 15 5 5 5 22 28 25 21 22 16 13 13 16 18 20 21 17 16 15 13 14 13 13 11 10 10 9 8 8 9 9 9 8 6 6 5 3
1 3 0 7 16 19 17 10 10 13 13 10 13 11 7 9 11 20 22 22 22 19 14 12 16 16 18 21 18 16 15 13 13 12 12 11 9 9 8 8 7 8 8 8 8 6 6 4 2
5 1 6 9 13 17 17 7 9 8 6 6 21 10 6 13 7 13 19 22 20 19 16 12 10 12 15 19 17 16 14 13 12 11 11 9 9 8 7 7 7 6 7 8 8 6 6 5 6
3 1 6 9 12 16 11 6 10 15 8 8 15 12 6 8 10 10 22 21 21 18 16 13 10 8 8 10 18 17 16 14 13 11 10 9 8 8 7 8 7 7 7 8 8 8 8 8 8
7 2 6 11 11 17 11 4 5 14 10 6 7 20 16 17 14 8 21 19 18 16 17 14 12 9 8 7 12 15 17 16 14 11 11 8 5 6 7 7 9 8 8 9 8 9 9 8 5
8 5 9 14 10 11 8 10 6 4 12 21 19 19 19 18 13 12 10 20 18 20 19 17 15 12 12 10 9 7 9 7 7 6 6 5 6 6 8 8 11 10 9 9 9 10 8 3 1
8 7 12 18 10 9 7 9 7 8 6 12 21 20 16 12 10 12 11 15 23 22 18 19 18 15 14 11 7 5 5 5 5 8 8 7 6 4 4 4 4 4 8 4 6 5 4 6 5
8 15 15 13 12 4 7 7 7 5 4 11 11 19 12 9 9 9 11 13 23 22 22 21 20 17 14 10 9 8 7 7 6 8 10 7 4 5 6 5 5 5 4 6 5 4 5 5 7
8 12 12 16 10 5 5 6 4 7 11 11 12 14 16 10 10 7 10 7 7 18 20 19 19 16 13 14 10 9 8 7 8 8 9 7 7 7 7 6 5 5 4 5 5 4 5 5 7
9 13 13 10 9 5 3 5 1 5 9 8 7 3 5 10 10 7 9 9 10 5 11 17 19 14 16 13 13 11 10 10 9 9 9 12 6 5 7 6 6 5 5 5 4 5 7 8 6
8 4 6 5 9 8 8 4 4 8 13 8 2 13 18 19 11 9 8 10 10 4 7 15 18 14 15 16 14 10 10 11 9 8 11 12 7 7 6 4 4 5 6 7 3 4 4 5 7
6 4 4 9 9 7 10 7 5 10 12 10 16 16 17 17 16 15 14 11 9 3 8 11 12 11 10 14 12 9 8 7 9 7 9 13 8 7 6 4 4 4 4 4 5 4 0 4 5
5 7 10 11 12 7 8 7 4 9 13 15 15 15 14 13 13 11 12 10 8 10 3 7 7 8 8 7 6 6 7 4 5 7 8 14 10 7 6 4 4 3 2 4 2 2 4 4 6
7 9 9 9 5 6 8 8 7 8 17 15 13 13 11 10 7 10 12 11 11 10 9 8 6 8 7 4 3 2 2 1 2 4 5 11 11 8 6 4 4 3 3 3 5 6 3 4 8
7 9 5 13 7 5 8 10 9 10 12 16 13 11 11 8 7 9 10 9 9 13 12 10 8 6 4 2 2 1 1 1 1 2 4 8 9 8 8 6 5 3 4 5 5 4 6 3 8
8 6 8 9 7 6 9 10 9 9 9 16 14 10 10 8 7 10 9 12 12 12 12 13 12 8 4 2 2 2 2 2 2 1 5 3 8 9 11 10 9 7 3 4 4 4 3 4 6
2 6 8 4 7 3 2 6 8 9 15 15 14 12 9 8 9 9 10 10 11 12 13 12 12 11 10 9 5 5 3 4 4 5 6 10 12 11 10 12 11 9 6 4 4 5 6 4 4
3 8 9 9 7 1 4 3 5 14 14 14 13 11 9 8 9 10 8 8 9 10 10 11 12 12 11 13 8 8 5 3 3 2 2 5 10 14 16 14 8 9 4 6 5 5 5 5 6
2 8 6 5 7 5 10 4 7 16 12 14 14 13 11 10 8 9 7 6 7 7 7 8 9 11 11 11 10 6 7 3 3 3 4 4 6 6 10 12 9 12 10 5 6 5 6 5 5
3 4 7 5 3 3 14 8 7 16 19 16 17 16 16 13 9 9 7 6 7 7 7 7 8 9 9 10 10 9 7 5 3 6 4 5 5 6 10 8 11 5 5 7 12 6 6 5 6
5 4 3 5 1 9 8 6 12 15 19 19 19 17 15 13 9 8 8 7 6 8 7 7 8 8 7 7 8 9 8 7 7 6 5 8 6 6 10 10 7 6 0 5 6 10 6 4 4
2 7 6 3 3 7 7 3 5 15 11 10 7 11 16 11 8 8 6 6 6 7 8 8 8 7 7 9 10 9 7 5 5 6 6 5 5 5 5 4 8 12 10 7 3 4 4 5 3
3 3 5 2 5 5 3 5 7 11 11 8 10 16 16 13 10 8 6 5 5 6 8 7 7 7 8 8 7 7 7 7 5 6 6 4 5 5 6 7 7 7 7 5 4 3 4 4 4
5 3 5 4 2 6 4 4 7 9 11 12 13 13 17 14 12 8 7 6 4 4 5 8 7 6 7 7 6 5 5 5 4 4 4 5 4 4 5 4 4 4 4 4 5 3 4 3 4
1 2 4 5 4 3 3 5 10 16 14 14 12 13 16 15 14 11 8 7 6 5 5 5 4 4 5 6 5 5 4 4 4 4 3 4 3 3 4 4 4 4 4 4 3 3 2 2 1
9 5 6 6 6 1 2 7 5 9 10 9 12 14 12 17 15 14 13 11 8 7 7 8 4 6 6 5 4 4 3 4 4 4 3 3 3 3 3 4 4 4 4 3 3 3 3 3 3
Wind_Direction
147 166 180 344 33 210 251 175 37 315 278 225 47 77 85 47 81 142 100 116 122 126 135 131 127 126 126 126 127 128 124 120 118 117 116 111 111 111 112 113 115 115 116 116 112 109 106 104 100
193 188 271 255 164 288 281 113 174 46 270 310 54 91 70 72 87 114 103 126 125 127 131 133 129 127 128 128 130 129 128 125 126 127 119 115 115 116 118 121 121 124 126 123 120 117 113 109 99
317 277 40 178 202 233 246 125 134 129 264 285 74 64 74 112 123 109 125 127 123 124 129 138 133 132 130 129 131 130 131 130 134 130 122 122 121 120 119 121 125 133 135 134 133 132 125 121 103
164 329 311 274 267 276 266 289 184 178 259 80 104 50 61 111 127 127 130 126 121 119 126 135 133 136 134 132 133 133 134 138 141 127 127 127 130 125 123 126 134 134 130 131 137 141 141 142 121
309 284 214 233 249 256 262 255 160 133 116 123 105 134 68 70 112 129 134 132 128 128 134 136 131 135 134 133 138 138 139 142 132 134 132 133 130 130 128 132 138 137 135 137 141 151 159 149 141
249 162 300 228 255 258 261 208 143 129 133 137 97 124 165 128 122 137 135 135 129 132 134 140 136 138 142 135 142 141 140 142 137 137 135 135 135 133 138 141 146 145 151 153 153 175 173 163 155
198 166 233 257 267 287 279 212 151 158 137 135 143 118 107 108 174 137 136 119 127 131 134 136 140 139 140 136 143 142 143 141 138 140 138 143 144 145 148 154 157 167 168 169 162 187 194 197 201
202 204 273 254 256 270 273 0 124 117 103 108 118 132 146 145 146 145 118 128 130 131 133 139 142 141 135 147 147 146 147 144 143 146 148 153 154 161 166 175 178 190 187 195 178 196 211 212 213
208 261 244 257 260 266 315 304 136 122 131 128 88 124 143 146 154 145 130 136 133 139 143 142 148 153 147 142 154 150 154 148 152 156 162 165 166 182 188 195 200 197 207 210 197 207 215 225 255
197 189 244 252 273 312 333 24 25 98 109 108 116 131 152 150 157 149 155 149 148 150 153 152 153 165 160 160 154 151 163 155 156 158 173 185 198 186 194 195 185 195 210 218 213 209 218 193 177
231 218 240 255 271 315 336 357 349 92 77 130 138 145 155 154 156 157 174 160 158 157 155 160 158 167 168 154 160 163 162 167 175 179 181 204 206 210 200 168 185 194 214 219 215 192 202 192 118
197 227 243 269 270 325 319 325 332 42 69 64 120 144 147 155 167 177 181 178 153 160 159 163 163 165 170 151 163 173 172 178 183 194 190 193 205 195 182 185 194 199 198 212 215 173 193 166 144
210 232 230 245 265 246 306 308 303 73 86 79 94 141 161 169 173 189 118 68 81 159 163 164 162 168 151 159 172 171 182 186 188 192 199 204 205 200 181 193 186 200 200 208 216 158 175 142 151
241 218 228 245 254 244 195 275 140 101 104 96 105 134 188 174 150 114 88 97 85 113 154 154 166 171 148 164 175 180 177 188 190 197 201 209 210 216 188 182 187 199 203 208 239 160 164 164 155
262 276 225 251 243 222 163 250 273 143 101 102 125 74 57 52 44 101 96 96 138 190 168 159 168 172 153 167 177 183 185 182 195 197 202 207 204 194 203 199 201 201 193 157 126 146 247 133 117
278 305 253 254 241 235 108 240 133 124 105 71 78 68 63 51 50 38 38 36 26 86 174 148 166 178 163 164 178 187 193 178 195 191 193 205 212 203 191 215 222 221 152 177 156 147 63 105 148
263 220 234 249 202 188 128 138 122 103 113 87 82 74 68 52 41 42 35 32 40 36 27 141 166 177 168 149 156 169 190 187 197 200 186 197 200 197 175 194 248 282 220 166 174 166 158 126 116
234 228 247 207 149 155 141 133 142 118 106 106 93 84 74 66 43 40 32 19 28 34 27 13 118 173 219 146 128 152 195 210 206 219 176 181 193 186 181 187 224 235 303 220 160 170 183 170 141
280 336 276 125 128 121 181 142 148 131 114 115 106 96 89 71 65 56 31 21 18 29 28 15 353 114 121 67 93 356 189 247 299 294 203 200 189 185 179 187 203 194 218 236 195 159 164 77 131
331 335 18 118 144 136 116 145 156 140 135 112 110 103 100 88 69 64 45 42 44 31 28 22 12 3 41 109 191 154 191 220 213 284 321 257 203 199 186 186 198 200 190 255 214 161 156 120 182
317 28 14 31 352 64 88 131 140 81 99 103 101 102 95 103 87 66 54 44 38 33 35 29 29 30 29 15 23 358 1 353 345 12 21 13 17 337 230 192 184 192 166 204 222 183 163 160 245
52 23 12 1 33 231 68 275 165 131 120 116 119 122 121 102 98 91 68 55 53 45 40 42 36 35 27 25 35 56 66 27 24 25 8 346 6 358 338 294 194 175 176 177 191 218 181 145 176
11 29 8 346 322 356 306 109 236 142 150 152 150 147 132 115 103 101 104 95 84 76 59 52 49 43 38 43 41 37 56 9 332 305 297 290 324 323 327 325 47 35 359 296 196 245 241 191 169
46 27 324 289 213 332 244 174 213 177 169 156 154 151 140 131 125 127 135 123 96 100 92 78 64 55 46 50 48 46 47 31 6 324 298 278 260 297 308 347 310 299 269 349 325 296 264 253 244
132 110 328 337 348 229 265 227 213 182 165 156 156 152 143 134 126 109 100 88 74 66 73 78 71 57 53 61 61 53 54 47 44 4 5 12 0 19 20 352 293 274 148 294 273 301 289 293 265
342 156 164 245 276 273 337 341 269 123 111 99 112 125 133 119 111 106 114 122 124 104 82 67 71 72 67 60 61 59 49 48 46 39 11 19 33 17 6 30 19 14 14 24 1 291 293 285 263
357 345 214 75 309 356 184 8 52 109 123 152 179 128 137 133 131 140 150 137 104 106 114 109 89 72 64 65 66 58 57 56 41 43 46 35 19 10 14 13 10 19 16 6 1 332 337 320 336
185 244 18 347 203 271 310 155 161 177 174 169 151 143 140 143 142 158 162 141 110 89 85 91 88 73 67 65 65 83 72 60 62 69 55 47 47 26 21 21 17 16 21 352 350 350 292 5 12
132 260 232 143 148 191 310 257 189 165 169 174 156 150 145 156 158 169 157 157 165 166 133 97 83 84 75 68 41 55 72 73 69 76 59 82 81 58 46 23 22 24 25 4 6 358 354 98 129
205 163 121 112 299 337 181 285 162 161 168 167 147 153 156 165 172 165 166 174 177 187 140 119 151 122 112 106 88 84 69 79 79 53 35 46 45 46 79 73 51 25 15 28 65 38 27 26 53